Location: Unspecified
(0.0000°N, 0.0000°E)
Time: 18:21:45
(UTC+02:00)

IUS-9 SRM-1 - Visible Passes

Search period start: 23 September 2014 00:00
Search period end: 03 October 2014 00:00
Orbit: 247 x 20666 km, 26.5° (Epoch: 23 September)

Date Brightness Start Highest point End Pass type
(mag) Time Alt. Az. Time Alt. Az. Time Alt. Az.
23 Sep 6.9 01:05:14 10° WSW 05:20:25 90° NNW 05:35:20 10° ENE visible
23 Sep 7.7 18:08:57 10° WNW 18:23:21 73° SSW 22:41:54 10° ESE visible
24 Sep 6.8 01:21:13 10° WSW 05:30:55 85° NNW 05:44:53 10° ENE visible
24 Sep 7.8 18:18:32 10° WNW 18:34:13 70° SSW 22:57:11 10° ESE visible
25 Sep 6.7 01:37:49 10° WSW 05:41:03 81° NW 05:54:12 10° NE visible
25 Sep 8.0 18:27:57 10° W 18:45:05 67° SSW 23:11:22 10° ESE visible
26 Sep 6.6 01:55:13 10° WSW 05:50:52 76° NW 06:03:19 10° NE visible
26 Sep 8.1 18:37:13 10° W 18:56:00 65° SSW 23:24:36 10° ESE visible
27 Sep 6.5 02:13:38 10° WSW 06:00:22 71° NW 06:12:12 10° NE visible
27 Sep 8.3 18:46:21 10° W 19:07:00 62° SSW 23:37:03 10° ESE visible
28 Sep 6.4 02:33:22 10° WSW 06:09:34 66° NW 06:20:53 10° NE visible
28 Sep 8.4 18:55:19 10° W 19:18:07 60° SSW 23:48:48 10° E visible
29 Sep 6.4 02:54:53 10° WSW 06:18:30 61° NW 06:29:21 10° NE visible
29 Sep 8.6 19:04:09 10° W 19:29:24 59° SSW 23:59:56 10° E visible
30 Sep 6.4 03:18:52 10° WSW 06:27:11 56° NW 06:37:37 10° NE visible
30 Sep 8.7 19:12:50 10° W 19:40:56 57° S 00:10:32 10° E visible
01 Oct 6.3 03:46:15 10° WSW 06:35:36 52° NW 06:45:40 10° NE visible
01 Oct 8.7 19:21:22 10° W 19:52:49 56° S 00:20:38 10° E visible
02 Oct 6.3 04:17:51 10° WSW 06:43:48 47° NW 06:53:31 10° NNE visible
02 Oct 9.0 19:29:45 10° W 20:05:14 55° S 23:54:56 37° ESE visible
